Lid_Strength_Index
4 4 4 4 3 3 3 3 3 3 2 1 1 1 1 1 1 3 6 2 1 -1 -1 3 4 4 4 6 4 4 10 12 10 10 9 6 7 6 6 7 6 5 5 4 2
4 4 4 4 3 3 3 3 3 3 2 1 2 1 1 1 3 3 0 -1 -0 -1 4 5 6 5 7 7 6 7 11 10 7 7 7 6 7 7 8 7 7 6 4 3 3
5 4 4 4 4 3 3 3 3 3 3 2 2 2 1 2 7 5 -1 -1 -1 0 4 4 4 6 8 8 8 6 10 7 6 6 6 7 8 5 8 8 6 6 6 4 4
5 5 4 4 4 4 3 3 3 3 3 3 2 2 1 4 12 5 -0 -0 -1 2 4 5 6 8 9 10 8 11 8 6 6 5 6 8 7 8 6 7 5 5 4 4 5
5 5 5 4 4 4 3 3 3 3 3 3 2 1 3 8 7 3 0 1 3 4 5 6 7 8 10 9 9 10 9 8 7 5 6 7 7 7 6 5 6 5 4 5 5
5 5 5 4 4 4 4 3 3 3 3 2 2 2 5 10 4 3 3 3 3 3 4 5 6 5 8 9 10 9 9 9 8 7 5 7 7 6 6 5 7 6 5 5 4
5 5 5 5 4 4 3 3 3 3 2 2 1 3 7 8 4 3 3 3 4 3 5 3 4 6 7 9 7 8 11 9 9 8 7 6 9 8 6 6 6 6 5 5 4
5 5 5 4 4 3 3 3 3 3 2 2 2 4 8 3 3 3 3 3 3 4 4 3 4 6 7 6 8 10 10 14 10 9 7 7 12 7 5 6 7 7 7 5 4
5 5 4 4 4 3 3 3 3 3 3 3 4 6 8 3 5 4 3 5 3 3 4 4 5 8 7 10 12 11 15 13 12 9 9 8 10 7 5 6 7 7 7 6 5
5 5 4 4 4 3 3 3 4 4 4 3 4 7 6 8 5 4 4 3 5 5 6 7 7 9 9 10 16 13 13 12 13 11 9 10 9 7 6 6 7 6 7 7 5
5 4 4 4 4 4 4 4 7 7 6 9 8 8 7 5 4 5 4 4 5 6 10 6 10 12 10 10 9 10 12 12 10 8 9 10 9 8 7 9 9 8 7 7 6
5 4 4 4 4 4 4 8 8 7 11 7 7 7 6 5 7 6 4 7 8 10 7 10 12 9 8 9 9 10 11 13 10 8 10 10 10 8 7 8 8 8 8 7 5
5 4 4 4 4 4 6 7 4 5 11 8 7 7 7 5 8 7 5 7 9 9 9 12 10 8 8 10 11 11 12 12 13 10 10 11 12 10 8 7 7 7 8 7 6
5 4 4 4 6 6 7 5 4 5 13 12 9 7 7 6 8 4 4 7 8 10 9 10 9 10 10 11 10 13 9 10 13 14 17 11 18 12 10 9 8 8 8 8 7
5 5 4 4 6 7 6 5 4 6 20 11 10 5 6 9 8 7 4 6 10 10 10 12 11 11 12 11 10 13 9 10 12 14 14 13 17 13 9 10 9 8 8 8 7
5 5 5 5 5 6 5 5 6 14 21 16 10 11 10 9 9 7 7 6 7 9 10 11 8 9 10 9 9 9 11 11 12 13 19 14 15 15 12 10 9 10 9 8 8
5 5 5 5 7 4 5 8 15 18 14 17 14 12 11 12 11 10 10 11 12 15 15 12 11 9 9 11 10 11 14 19 20 20 20 13 15 14 10 11 11 11 10 10 10
5 6 6 5 4 4 6 13 21 20 18 12 13 12 13 12 12 11 11 12 10 11 14 15 18 11 9 10 13 12 13 18 22 21 18 15 17 13 11 10 10 9 9 9 10
5 5 6 5 4 5 10 18 19 16 14 14 13 16 15 13 13 13 12 12 10 10 15 16 16 10 9 9 9 12 14 11 16 18 19 16 13 10 10 10 10 9 9 9 9
7 8 7 5 5 7 14 16 17 12 12 13 17 15 19 16 16 15 14 10 11 8 8 12 16 11 10 9 9 11 9 15 15 22 22 17 16 16 13 11 10 10 9 9 9
8 11 7 5 6 12 17 17 16 12 12 13 15 16 15 15 15 16 14 11 10 10 8 10 12 14 12 13 14 13 14 12 12 14 18 19 18 13 12 11 11 9 9 9 9
9 16 7 5 13 15 16 18 14 13 11 12 12 13 14 14 15 14 14 12 9 9 11 10 12 15 14 10 10 10 12 12 16 16 15 16 17 10 11 10 9 9 9 9 9
14 13 7 7 16 16 17 18 14 14 13 13 13 12 12 15 18 14 13 10 10 10 12 9 13 17 16 13 11 13 11 11 11 13 16 18 16 10 10 10 9 10 10 10 9
14 17 12 10 12 14 17 18 18 13 14 13 13 12 14 15 13 15 14 11 10 9 8 9 12 15 18 15 12 14 13 11 12 16 16 15 14 11 11 11 10 10 10 10 10
14 15 14 18 17 14 14 16 16 18 14 13 15 14 14 19 16 17 14 13 11 9 11 11 15 13 12 12 12 13 13 12 13 12 15 14 14 10 11 12 10 9 10 10 10
15 15 14 15 14 15 14 18 16 15 15 16 19 14 14 17 15 17 14 14 14 12 12 12 17 14 16 12 12 13 12 12 12 12 13 12 13 10 11 10 10 9 9 10 10
10 10 12 15 15 16 16 15 15 14 13 12 13 14 15 13 12 12 11 11 12 13 15 14 17 21 22 14 13 19 14 13 13 11 11 14 11 11 11 9 9 9 9 9 9